• în România
  • Lista ţărilor
  • Pe 7 zile
  • Temperatura apei
  • Hartă satelitară
  • Meteo pe hartă
  • Widget-uri
  • user-avatar
    Intrare

    Meteo pe oră la Vinh

    Astăzi, 20 Iunie, Miercuri

    Timp Temperatura Precipitaţii Vânt Presiune Umiditate
    00:00 +29°C° 0 mm 2 m/s 742 mmHg 78%
    01:00 +29°C° 0 mm 2 m/s 742 mmHg 78%
    02:00 +29°C° 0 mm 2 m/s 742 mmHg 78%
    03:00 +29°C° 0 mm 2 m/s 742 mmHg 78%
    04:00 +29°C° 0 mm 2 m/s 742 mmHg 79%
    05:00 +29°C° 0 mm 2 m/s 742 mmHg 77%
    06:00 +30°C° 0 mm 2 m/s 742 mmHg 75%
    07:00 +31°C° 0 mm 2 m/s 743 mmHg 72%
    08:00 +33°C° 0 mm 3 m/s 743 mmHg 68%
    09:00 +34°C° 0 mm 3 m/s 743 mmHg 64%
    10:00 +35°C° 0 mm 3 m/s 743 mmHg 59%
    11:00 +37°C° 0 mm 3 m/s 743 mmHg 55%
    12:00 +38°C° 0 mm 3 m/s 742 mmHg 51%
    13:00 +39°C° 0 mm 3 m/s 742 mmHg 48%
    14:00 +39°C° 0 mm 3 m/s 741 mmHg 48%
    15:00 +38°C° 0 mm 3 m/s 741 mmHg 49%
    16:00 +38°C° 0 mm 3 m/s 740 mmHg 49%
    17:00 +36°C° 0 mm 3 m/s 740 mmHg 56%
    18:00 +34°C° 0 mm 3 m/s 741 mmHg 62%
    19:00 +33°C° 0 mm 3 m/s 741 mmHg 69%
    20:00 +31°C° 0 mm 3 m/s 741 mmHg 71%
    21:00 +31°C° 0 mm 2 m/s 742 mmHg 72%
    22:00 +30°C° 0 mm 2 m/s 742 mmHg 74%
    23:00 +30°C° 0 mm 2 m/s 742 mmHg 75%

    Mâine, 21 Iunie, Joi

    Timp Temperatura Precipitaţii Vânt Presiune Umiditate
    00:00 +30°C° 0 mm 2 m/s 742 mmHg 77%
    01:00 +30°C° 0 mm 2 m/s 742 mmHg 78%
    02:00 +29°C° 0 mm 2 m/s 742 mmHg 78%
    03:00 +29°C° 0 mm 2 m/s 742 mmHg 78%
    04:00 +29°C° 0 mm 2 m/s 742 mmHg 78%
    05:00 +30°C° 0 mm 2 m/s 742 mmHg 76%
    06:00 +30°C° 0 mm 3 m/s 742 mmHg 74%
    07:00 +31°C° 0 mm 3 m/s 742 mmHg 72%
    08:00 +33°C° 0 mm 3 m/s 742 mmHg 67%
    09:00 +35°C° 0 mm 3 m/s 742 mmHg 63%
    10:00 +36°C° 0 mm 3 m/s 743 mmHg 58%
    11:00 +37°C° 0 mm 3 m/s 742 mmHg 56%
    12:00 +38°C° 0 mm 4 m/s 742 mmHg 54%
    13:00 +38°C° 0 mm 4 m/s 741 mmHg 52%
    14:00 +38°C° 0 mm 4 m/s 741 mmHg 52%
    15:00 +38°C° 0 mm 4 m/s 740 mmHg 52%
    16:00 +38°C° 0 mm 4 m/s 740 mmHg 52%
    17:00 +36°C° 0 mm 4 m/s 740 mmHg 58%
    18:00 +34°C° 0 mm 3 m/s 740 mmHg 64%
    19:00 +33°C° 0 mm 3 m/s 740 mmHg 69%
    20:00 +31°C° 0 mm 3 m/s 741 mmHg 70%
    21:00 +31°C° 0 mm 3 m/s 741 mmHg 72%
    22:00 +31°C° 0 mm 3 m/s 742 mmHg 73%
    23:00 +30°C° 0 mm 3 m/s 742 mmHg 74%

    Poimâine, 22 Iunie, Vineri

    Timp Temperatura Precipitaţii Vânt Presiune Umiditate
    00:00 +30°C° 0 mm 3 m/s 741 mmHg 74%
    01:00 +30°C° 0 mm 2 m/s 741 mmHg 75%
    02:00 +30°C° 0 mm 2 m/s 741 mmHg 75%
    03:00 +30°C° 0 mm 2 m/s 741 mmHg 75%
    04:00 +29°C° 0 mm 2 m/s 740 mmHg 75%
    05:00 +30°C° 0 mm 3 m/s 741 mmHg 74%
    06:00 +30°C° 0 mm 3 m/s 741 mmHg 73%
    07:00 +31°C° 0 mm 3 m/s 742 mmHg 72%
    08:00 +33°C° 0 mm 3 m/s 742 mmHg 67%
    09:00 +34°C° 0 mm 4 m/s 742 mmHg 61%
    10:00 +36°C° 0 mm 4 m/s 742 mmHg 56%
    11:00 +36°C° 0 mm 4 m/s 742 mmHg 54%
    12:00 +37°C° 0 mm 4 m/s 742 mmHg 53%
    13:00 +38°C° 0 mm 4 m/s 741 mmHg 51%
    14:00 +38°C° 0 mm 4 m/s 740 mmHg 52%
    15:00 +37°C° 0 mm 4 m/s 740 mmHg 53%
    16:00 +37°C° 0 mm 5 m/s 739 mmHg 54%
    17:00 +35°C° 0 mm 4 m/s 739 mmHg 59%
    18:00 +34°C° 0 mm 3 m/s 740 mmHg 64%
    19:00 +31°C° 0 mm 3 m/s 740 mmHg 69%
    20:00 +31°C° 0 mm 3 m/s 741 mmHg 69%
    21:00 +31°C° 0 mm 3 m/s 741 mmHg 69%
    22:00 +31°C° 0 mm 2 m/s 742 mmHg 69%
    23:00 +30°C° 0 mm 2 m/s 742 mmHg 70%

    23 Iunie, Sâmbătă

    Timp Temperatura Precipitaţii Vânt Presiune Umiditate
    00:00 +30°C° 0 mm 2 m/s 741 mmHg 71%
    01:00 +30°C° 0 mm 2 m/s 741 mmHg 71%
    02:00 +30°C° 0 mm 2 m/s 741 mmHg 71%
    03:00 +30°C° 0 mm 2 m/s 741 mmHg 71%
    04:00 +29°C° 0 mm 2 m/s 740 mmHg 71%
    05:00 +30°C° 0 mm 3 m/s 741 mmHg 70%
    06:00 +30°C° 0 mm 3 m/s 741 mmHg 68%
    07:00 +30°C° 0 mm 3 m/s 742 mmHg 67%
    08:00 +33°C° 0 mm 4 m/s 742 mmHg 62%
    09:00 +34°C° 0 mm 4 m/s 742 mmHg 57%
    10:00 +36°C° 0 mm 4 m/s 742 mmHg 52%
    11:00 +37°C° 0 mm 5 m/s 742 mmHg 49%
    12:00 +37°C° 0 mm 5 m/s 741 mmHg 47%
    13:00 +39°C° 0 mm 5 m/s 741 mmHg 44%
    14:00 +39°C° 0 mm 5 m/s 740 mmHg 45%
    15:00 +39°C° 0 mm 5 m/s 740 mmHg 46%
    16:00 +37°C° 0 mm 5 m/s 739 mmHg 47%
    17:00 +36°C° 0 mm 4 m/s 740 mmHg 54%
    18:00 +34°C° 0 mm 3 m/s 740 mmHg 61%
    19:00 +31°C° 0 mm 2 m/s 741 mmHg 67%
    20:00 +31°C° 0 mm 2 m/s 741 mmHg 69%
    21:00 +30°C° 0 mm 2 m/s 742 mmHg 70%
    22:00 +30°C° 0 mm 2 m/s 742 mmHg 71%
    23:00 +29°C° 0 mm 2 m/s 742 mmHg 71%

    24 Iunie, Duminică

    Timp Temperatura Precipitaţii Vânt Presiune Umiditate
    00:00 +29°C° 0 mm 2 m/s 741 mmHg 72%
    01:00 +29°C° 0 mm 2 m/s 741 mmHg 72%
    02:00 +29°C° 0 mm 2 m/s 741 mmHg 72%
    03:00 +29°C° 0 mm 2 m/s 741 mmHg 73%
    04:00 +28°C° 0 mm 2 m/s 741 mmHg 73%
    05:00 +29°C° 0 mm 2 m/s 741 mmHg 71%
    06:00 +30°C° 0 mm 3 m/s 742 mmHg 69%
    07:00 +31°C° 0 mm 3 m/s 742 mmHg 67%
    08:00 +33°C° 0 mm 3 m/s 742 mmHg 60%
    09:00 +35°C° 0 mm 4 m/s 742 mmHg 54%
    10:00 +37°C° 0 mm 4 m/s 743 mmHg 48%
    11:00 +38°C° 0 mm 4 m/s 742 mmHg 46%
    12:00 +38°C° 0 mm 4 m/s 742 mmHg 44%
    13:00 +40°C° 0 mm 5 m/s 741 mmHg 42%
    14:00 +40°C° 0 mm 4 m/s 741 mmHg 44%
    15:00 +38°C° 0 mm 4 m/s 740 mmHg 46%
    16:00 +38°C° 0 mm 4 m/s 740 mmHg 47%
    17:00 +36°C° 0 mm 4 m/s 740 mmHg 54%
    18:00 +34°C° 0 mm 3 m/s 741 mmHg 60%
    19:00 +31°C° 0 mm 3 m/s 741 mmHg 66%
    20:00 +31°C° 0 mm 3 m/s 742 mmHg 68%
    21:00 +30°C° 0 mm 2 m/s 742 mmHg 69%
    22:00 +30°C° 0 mm 2 m/s 743 mmHg 70%
    23:00 +30°C° 0 mm 2 m/s 742 mmHg 72%

    25 Iunie, Luni

    Timp Temperatura Precipitaţii Vânt Presiune Umiditate
    00:00 +29°C° 0 mm 2 m/s 742 mmHg 73%
    01:00 +29°C° 0 mm 2 m/s 742 mmHg 74%
    02:00 +29°C° 0 mm 2 m/s 742 mmHg 75%
    03:00 +29°C° 0 mm 2 m/s 742 mmHg 75%
    04:00 +29°C° 0 mm 2 m/s 742 mmHg 76%
    05:00 +29°C° 0 mm 2 m/s 742 mmHg 74%
    06:00 +30°C° 0 mm 2 m/s 742 mmHg 72%
    07:00 +30°C° 0 mm 2 m/s 743 mmHg 71%
    08:00 +33°C° 0 mm 3 m/s 743 mmHg 64%
    09:00 +35°C° 0 mm 3 m/s 743 mmHg 57%
    10:00 +37°C° 0 mm 3 m/s 743 mmHg 50%
    11:00 +38°C° 0 mm 4 m/s 743 mmHg 47%
    12:00 +40°C° 0 mm 4 m/s 742 mmHg 44%
    13:00 +41°C° 0 mm 4 m/s 741 mmHg 42%
    14:00 +40°C° 0 mm 4 m/s 741 mmHg 43%
    15:00 +40°C° 0 mm 4 m/s 741 mmHg 45%
    16:00 +38°C° 0 mm 4 m/s 740 mmHg 47%
    17:00 +36°C° 0 mm 4 m/s 740 mmHg 53%
    18:00 +34°C° 0 mm 3 m/s 741 mmHg 60%
    19:00 +33°C° 0 mm 3 m/s 741 mmHg 66%
    20:00 +31°C° 0 mm 3 m/s 741 mmHg 67%
    21:00 +31°C° 0 mm 2 m/s 742 mmHg 68%
    22:00 +30°C° 0 mm 2 m/s 742 mmHg 69%
    23:00 +30°C° 0 mm 2 m/s 742 mmHg 70%
    Arată mai mult